CZ-6A R/B, 62237

Orbit data source: Space-Track

CZ-6A R/B, 62237 is space debris in LEO originally from a launch on Thu, 05 Dec 2024 UTC via a CHANG ZHENG 6A launch vehicle from the Taiyaun Space Center, China (TSC). Debris objects in space refer to the collection of defunct objects orbiting the Earth. Examples of debris include non-operational satellites, rocket bodies, and fragments generated from explosions, collisions, or faulty payload assembly.

Loading next visibility...
CZ-6A R/B details
Identifier
62237, 2024-232A
Orbit
LEO
Last TLE update12 hours ago
Origin
Flag of CNCNSA (CN / PRC)
ManufacturerSAST
MissionSpacecraft
Bus & MotorCZ-6A STAGE 2, YF-115
Mass~6,000 kg wet, ~6,000 kg dry
Launch date (UTC)
2024-12-05 (2 months ago)
Launch vehicle
CHANG ZHENG 6A
Launch site
Taiyaun Space Center, China (TSC)
Object type
Payload
Rocket body
Debris
Shape & HBRUnknown shape, 11 m
Radar Cross SectionLarge (>1 m²)

Expand to show TLE details & history

TLE from 12 hours ago
0 CZ-6A R/B
1 62237U 24232A   25035.80931889  .00000711  00000-0  16418-3 0  9996
2 62237  89.0178  72.9238 0096372 263.0001  96.0238 14.51425941 57269
Epoch: 2025-02-04T19:25Z
Definitive object data (Epoch: 2025-02-04T19:25:25.152Z)
Latitude-0.00002°
Longitude6.35972°
Altitude731.926 km
Speed7.485 km/s
True Right ascension04h 51m 41s
True Declination0° 00' 00"
Sunlit
Object was in daylight at TLE epoch
Visualization TLE readout
Latitude1.34337°
Longitude6.32602°
Altitude735.293 km
Speed7.481 km/s
Apparent Right ascension02h 04m 23s
Apparent Declination-30° 50' 13"
Sunlit
Object is in daylight
Visualization observer readout
Local Sidereal Time09:03:00
Azimuth253.012° W
Elevation-29.703°
Doppler factor1
Orbital elements
Apogee altitude786.287 km
Perigee altitude649.515 km
Semi-major axis7,096.038 km
Eccentricity0.0096372
Inclination89.0178°
RAAN72.9238°
Arg. of periapsis263.0001°
True anomaly97.12059°
Mean anomaly96.0238°
Eccentric anomaly96.57234°
Mean motion3.63094 °/min
BSTAR0.00016418
Orbital period99.15 mins
Loading maneuver chart data...
Loading historical data...
Loading historical data...
Loading historical data...
Loading historical data...
Loading historical data...
Loading historical data...
Loading historical data...

CZ-6A R/B Visibility forecast

Observer location: undefined°, undefined

Span
Click to sort rows by Start time (UTC) header in descending order
Start Az.
Max El. time (UTC)
Max El. Az.
Max El.
End time (UTC)
End Az.
9 mins2025-02-05 14:11:44.015Z12.97° NNE2025-02-05 14:16:44.015Z91.515° ESE36.32°2025-02-05 14:20:44.015Z158.356° S
4 mins2025-02-05 15:53:44.015Z307.522° NW2025-02-05 15:55:44.015Z278.499° WNW17.393°2025-02-05 15:57:44.015Z251.516° W
9 mins2025-02-06 02:58:44.015Z190.152° SSW2025-02-06 03:02:44.015Z267.339° W42.501°2025-02-06 03:07:44.015Z352.961° N
|